Temp
23 23 25 28 31 32 34 34 36 35 34 36 36 35 36 38 37 36 32 32 33 30 27 27 27 27 27 26 26 26 26 25 25 24 24 23 23 23 23 23 23 22 19 19 19 19 19 18 18
24 24 27 32 31 33 35 36 34 36 36 36 36 35 35 36 39 38 34 30 31 29 26 25 27 27 27 26 26 26 26 25 25 25 24 24 24 23 23 23 23 22 20 19 19 18 19 19 19
24 26 31 31 32 33 35 36 36 36 35 36 35 36 36 36 37 37 33 30 31 29 27 26 28 28 27 26 26 26 26 26 25 25 25 25 24 23 23 23 23 21 20 19 19 19 19 19 19
26 28 30 30 32 34 35 34 35 34 36 35 36 35 36 35 35 36 32 32 31 30 28 26 29 28 27 26 25 26 26 25 25 25 25 24 24 24 23 23 22 21 20 19 19 20 19 19 19
27 30 30 30 32 34 35 35 35 34 35 35 35 35 36 35 34 34 33 32 32 31 30 26 28 28 27 26 25 25 25 25 25 25 24 24 23 23 23 22 22 21 21 20 19 19 19 19 18
27 29 30 31 32 34 35 34 34 34 35 36 35 35 36 35 34 34 33 32 33 31 29 28 28 28 26 26 26 25 25 25 25 24 24 24 23 24 23 22 22 21 20 19 19 19 19 18 18
28 28 29 30 31 32 34 35 34 35 35 36 37 35 36 35 34 33 33 32 31 30 29 28 25 24 26 26 26 25 25 25 25 25 25 24 24 23 23 22 22 21 20 19 19 19 19 18 18
29 30 29 30 29 30 32 33 34 35 35 36 36 35 35 36 33 32 33 32 31 30 30 28 26 25 23 23 25 25 25 25 25 25 25 24 23 23 22 22 21 21 20 20 19 19 19 18 18
28 28 29 31 31 31 32 32 35 35 34 35 36 36 34 32 33 34 34 34 33 32 30 29 28 27 25 25 24 24 23 23 23 23 23 21 21 20 20 20 20 21 21 20 20 19 19 19 19
27 28 29 31 32 30 31 33 34 33 34 34 34 34 34 34 34 35 35 35 34 33 31 29 27 27 26 26 25 22 22 22 21 22 21 20 22 22 22 21 20 20 21 20 19 19 19 19 21
27 27 31 31 31 30 30 32 34 33 33 35 34 35 34 34 34 35 35 36 36 34 33 31 27 26 25 26 26 25 24 24 23 22 22 22 22 22 22 22 20 20 19 20 20 18 19 21 22
27 28 28 30 31 28 29 30 32 33 33 35 34 33 33 33 34 35 35 35 35 34 33 31 29 25 24 26 25 25 25 25 24 23 22 22 22 22 22 22 23 21 22 21 22 22 21 21 22
27 28 29 29 29 29 28 29 30 32 33 34 34 33 32 33 33 33 32 32 33 33 33 32 30 26 24 23 26 26 26 26 25 24 23 22 23 23 22 22 23 23 23 23 22 21 22 21 21
28 28 28 29 29 29 28 28 29 31 32 32 32 32 33 33 33 32 31 32 32 32 32 32 30 28 25 24 24 26 25 26 25 25 24 22 22 23 22 22 22 23 23 23 22 22 22 21 22
26 25 27 28 28 28 28 27 28 31 32 32 31 32 32 33 33 33 32 31 31 32 31 30 29 28 26 26 25 24 26 25 25 25 24 23 21 22 21 22 22 23 23 22 22 22 20 21 21
24 25 25 27 28 28 27 26 30 32 32 31 31 32 32 33 33 33 32 31 30 30 30 30 30 30 28 26 26 26 26 25 25 25 24 22 21 21 21 21 22 22 22 21 21 21 21 22 21
23 24 25 27 29 28 25 26 29 31 32 32 32 32 33 33 33 32 31 30 30 29 28 29 29 29 27 26 26 26 25 24 25 24 24 22 20 20 21 21 22 21 21 21 21 21 21 22 19
23 25 25 26 29 28 27 26 29 31 30 31 31 31 32 32 32 32 31 30 29 29 28 27 28 27 25 25 25 25 25 24 24 24 23 22 20 20 19 21 21 19 20 21 20 21 22 20 20
23 24 25 26 28 28 28 27 28 29 30 30 31 31 31 31 32 31 30 29 28 28 27 27 27 26 24 26 26 26 26 25 24 23 22 21 20 20 19 21 19 19 20 20 20 20 20 19 19
22 21 23 24 25 26 27 27 28 29 29 30 30 30 30 31 31 31 30 29 28 27 27 27 27 26 24 25 25 26 26 26 24 23 21 21 21 20 19 21 20 19 21 20 19 20 21 20 18
20 20 21 22 24 25 25 25 26 28 29 29 29 29 29 29 29 29 30 29 29 28 28 27 27 26 24 24 24 23 24 22 22 22 22 21 20 18 19 20 20 19 20 20 20 20 20 19 19
19 21 21 21 22 22 25 23 26 27 27 28 29 29 29 29 30 30 30 30 29 29 29 28 27 25 24 23 25 24 25 25 24 24 22 19 19 18 20 20 19 19 21 21 20 19 19 19 18
19 21 21 21 21 22 23 23 25 27 27 28 29 29 29 30 30 30 30 30 29 29 29 28 26 26 25 23 24 23 26 26 24 24 20 20 19 20 20 19 20 20 21 20 20 18 18 18 19
20 20 20 21 21 21 23 23 24 26 27 28 29 30 30 30 30 30 30 29 29 29 28 27 26 25 24 22 23 23 25 25 25 23 22 21 20 20 20 20 20 20 21 20 19 18 17 17 19
20 18 18 18 19 20 23 23 24 27 27 28 28 28 29 29 29 29 30 30 30 29 28 27 25 24 23 22 23 23 23 23 23 23 24 23 22 21 20 20 20 20 19 19 18 18 19 17 18
18 19 18 18 20 21 23 22 24 26 27 28 28 28 28 28 28 29 29 29 29 29 28 27 26 25 23 23 23 23 22 24 23 24 23 23 23 22 20 20 20 20 19 19 18 19 19 18 18
17 18 20 19 20 22 24 24 25 26 26 27 28 27 27 27 27 28 28 28 28 28 27 26 25 24 23 23 23 22 23 24 24 22 22 22 23 21 20 20 20 19 19 19 18 20 18 18 18
18 19 18 19 17 20 23 24 24 26 25 27 26 26 26 26 27 27 27 26 25 25 24 25 24 24 23 23 22 22 22 22 21 21 22 22 21 21 20 20 19 19 19 19 18 19 18 18 18
18 18 17 18 19 20 22 24 26 26 26 25 25 25 26 26 27 27 24 22 23 25 25 24 24 23 23 23 23 22 22 21 21 21 21 20 20 20 20 20 19 19 19 19 18 19 19 18 17
16 15 17 17 17 19 21 23 25 25 24 25 25 25 25 26 27 27 21 20 24 25 25 24 24 24 23 23 22 22 22 21 21 21 21 20 20 20 20 19 19 19 19 19 19 19 19 18 17
Height
788 791 789 785 788 775 769 761 744 749 750 736 735 739 740 728 740 754 733 737 740 746 752 755 759 763 767 770 772 774 777 778 781 784 787 789 790 792 792 793 796 798 800 802 802 802 801 803 804
789 791 788 772 784 777 761 744 754 741 734 733 734 736 739 742 720 726 732 737 740 745 750 754 757 759 763 767 771 772 774 776 779 781 784 788 789 791 791 792 794 796 798 800 802 803 802 802 803
789 789 778 773 770 770 756 741 741 736 733 734 736 730 732 735 727 729 731 735 740 745 749 752 755 757 761 766 769 772 774 776 777 780 782 785 788 791 791 792 794 795 797 799 801 802 802 802 803
786 784 776 779 765 753 745 744 737 742 733 730 731 740 728 726 727 728 731 736 739 746 749 750 753 757 760 765 769 770 773 775 777 780 782 784 788 789 791 792 794 795 797 800 801 801 802 803 803
782 774 778 772 762 745 740 738 739 745 739 735 730 735 731 725 727 729 732 736 739 744 749 751 751 757 761 765 769 770 773 775 777 779 782 785 788 789 790 793 794 795 796 798 800 802 802 802 803
781 774 777 770 757 744 738 737 739 740 735 730 732 731 726 723 727 729 732 736 740 744 748 752 752 755 759 764 767 770 772 774 776 779 782 785 787 789 791 792 794 795 796 797 798 799 801 801 802
773 775 774 767 758 750 741 732 741 738 733 730 720 732 722 722 725 730 732 737 739 743 746 750 753 754 757 761 764 767 770 772 773 776 779 782 784 786 789 791 793 794 796 796 797 798 799 800 800
767 762 766 760 768 762 744 739 733 731 732 720 721 729 729 721 727 730 733 736 738 741 745 748 752 755 758 761 762 765 767 771 773 774 776 779 782 784 787 789 791 793 794 794 795 796 796 798 798
766 770 762 752 754 752 741 742 726 724 729 725 720 719 725 726 727 728 731 734 736 739 742 746 749 753 755 759 761 762 764 768 772 773 774 778 783 784 786 787 789 790 791 792 793 794 795 795 795
762 759 747 736 737 749 741 736 728 734 730 728 725 725 725 725 726 725 729 731 732 735 740 744 748 750 754 757 758 759 762 764 767 770 772 775 779 781 783 785 786 787 788 790 791 791 793 793 794
751 749 735 733 734 742 744 736 726 734 733 721 724 720 724 727 727 727 727 726 726 731 736 740 743 744 748 752 754 756 757 757 758 760 764 767 773 777 778 781 783 785 786 788 788 788 789 791 791
753 736 739 734 732 743 745 736 730 725 724 715 720 723 727 726 725 724 725 728 728 731 734 736 739 739 742 747 748 749 750 752 753 755 758 763 765 768 771 774 777 778 780 782 784 786 789 788 788
739 737 733 732 734 734 741 737 731 721 716 717 718 722 724 725 726 726 727 729 728 729 730 732 735 736 737 738 742 742 742 744 746 749 753 757 758 761 765 767 770 773 775 776 779 782 782 784 785
732 732 731 729 730 732 740 731 734 716 714 716 720 720 717 720 722 722 724 725 724 725 726 728 729 731 732 732 733 735 737 738 740 743 746 748 752 754 757 761 765 767 769 771 774 776 779 780 780
738 742 733 723 723 728 732 734 720 712 711 710 715 715 712 713 716 717 719 721 721 721 723 722 724 725 726 727 727 729 730 731 731 733 738 742 746 749 752 756 759 762 764 767 770 772 775 776 776
747 740 740 711 720 720 734 730 695 699 704 708 707 708 705 704 705 708 712 715 717 718 719 719 719 720 721 720 722 722 723 724 725 727 731 734 739 744 747 750 752 755 759 762 765 768 770 771 771
739 733 721 716 706 717 733 718 697 694 696 696 697 698 698 697 699 701 708 712 713 714 714 714 714 714 713 713 714 715 716 717 718 721 725 728 733 738 742 745 747 750 754 756 760 763 765 765 769
730 722 719 716 700 707 714 706 700 689 693 691 692 695 693 693 696 700 704 708 708 708 708 707 707 708 705 706 706 708 710 712 713 715 719 723 728 734 737 739 742 745 749 751 755 758 760 762 765
727 721 710 703 698 701 699 696 697 693 691 689 688 688 689 691 693 696 698 699 701 702 700 700 700 700 702 699 700 701 703 706 708 711 715 719 724 728 731 734 738 741 743 746 750 754 757 760 761
730 731 720 714 709 703 699 692 688 686 682 681 683 683 683 683 683 685 688 691 693 693 693 692 693 695 696 694 695 696 697 700 704 707 711 716 720 724 727 730 734 737 740 743 747 751 752 755 759
738 733 727 721 711 705 704 698 690 678 678 679 680 681 681 682 682 681 680 681 683 683 684 685 687 688 689 690 691 693 695 698 700 703 708 712 717 720 724 727 731 734 737 740 743 747 750 754 756
734 724 722 721 719 717 701 703 684 679 677 674 673 673 673 673 672 671 671 669 672 673 674 677 680 682 683 683 685 686 686 688 693 698 703 709 714 718 722 726 729 732 735 738 742 746 748 750 753
725 719 717 715 714 713 704 703 677 673 675 669 665 665 666 663 663 662 660 660 661 663 665 668 671 673 675 677 679 682 681 684 690 695 701 707 712 716 721 724 728 731 734 737 740 743 745 747 748
718 718 715 711 708 705 692 696 680 674 666 659 656 655 656 656 656 654 653 653 652 654 657 660 663 665 668 672 675 676 679 683 687 693 698 704 710 716 720 724 727 730 733 736 739 741 743 745 745
717 722 722 719 709 699 683 693 683 659 659 649 657 657 656 654 651 649 647 644 643 646 650 653 656 659 664 668 670 674 678 683 687 692 694 700 708 714 719 722 725 729 732 734 737 739 740 742 744
716 711 715 706 693 690 682 686 669 658 655 653 652 654 653 652 649 645 640 639 638 639 643 649 652 656 661 665 668 673 678 682 686 690 694 699 706 712 717 721 724 727 730 732 734 736 738 740 742
718 712 700 697 690 668 657 668 664 652 659 654 651 653 654 653 648 642 638 635 636 636 641 644 648 654 659 664 668 673 678 682 686 692 697 702 706 711 716 720 723 726 728 730 732 733 737 739 740
710 706 710 700 711 683 653 658 662 646 656 652 658 659 655 651 644 639 637 637 637 638 643 644 648 653 659 665 669 674 679 683 689 694 699 704 708 711 716 719 722 724 726 729 731 732 735 736 738
703 701 713 706 692 677 660 648 632 641 641 656 659 659 655 649 643 639 642 645 640 638 640 645 649 654 660 665 670 675 680 686 691 696 701 705 708 712 715 718 721 723 725 728 730 731 732 735 737
712 715 704 705 705 686 664 655 638 641 653 654 655 656 653 648 642 638 647 646 638 638 642 647 651 655 660 666 671 676 682 688 693 697 701 705 708 712 715 717 720 722 724 726 729 730 731 733 735
Wind_Speed
11 4 4 6 7 6 13 8 11 6 8 4 4 6 12 8 16 1 5 17 17 26 27 32 31 29 28 28 27 27 25 25 24 23 22 22 20 18 16 14 12 11 10 10 9 8 8 7 5
10 7 7 4 8 11 12 13 10 10 1 5 6 11 9 8 9 2 10 17 20 25 27 30 33 31 30 29 29 28 27 26 25 24 23 22 21 20 18 16 15 14 12 10 9 8 7 7 6
10 8 7 6 12 14 10 9 11 6 5 5 4 6 7 8 7 1 10 20 21 23 25 29 35 33 31 31 30 29 28 28 26 25 24 23 22 20 19 17 16 14 13 12 10 8 7 6 5
9 7 5 10 17 17 15 1 2 4 5 2 5 4 4 5 1 7 18 21 21 22 24 28 34 34 33 32 30 29 28 28 26 25 24 23 21 19 18 16 16 15 13 12 11 9 7 5 4
8 4 11 16 21 18 11 14 8 10 9 7 4 7 4 6 6 11 23 20 20 21 21 24 32 34 32 32 32 30 28 26 25 25 24 22 21 20 18 17 16 15 15 14 11 8 7 6 5
6 5 11 17 19 17 15 14 13 15 13 11 9 11 7 4 10 15 22 20 17 19 20 19 30 33 32 32 32 31 30 28 27 26 24 24 23 21 20 18 17 15 15 14 13 10 8 6 6
14 10 17 20 17 14 16 12 14 15 13 12 6 12 2 7 8 14 20 17 16 16 17 18 20 31 34 32 31 31 30 30 30 29 27 26 25 23 21 19 17 16 16 14 13 11 9 7 6
11 12 21 19 18 21 14 11 17 14 14 3 6 9 8 7 8 13 16 17 15 15 16 17 18 21 23 24 32 31 30 31 30 29 29 28 26 24 23 21 19 18 16 15 13 12 11 9 8
13 13 17 23 19 13 6 15 16 8 11 9 2 3 6 1 9 13 15 16 16 16 16 17 19 20 22 23 22 32 32 32 31 30 30 28 22 21 21 21 21 20 18 16 15 13 12 11 9
17 17 26 18 14 9 17 16 11 7 15 14 9 8 5 6 9 12 14 16 18 18 16 15 17 19 19 21 22 21 25 26 27 27 25 27 24 22 22 22 24 23 19 16 15 15 14 12 10
22 26 22 22 16 13 19 19 14 14 16 16 13 10 3 2 3 6 9 11 12 18 16 16 17 19 22 21 21 21 23 26 28 30 30 27 26 24 23 22 22 21 20 17 17 16 15 13 11
26 26 26 27 17 12 21 18 24 23 21 18 6 9 12 13 9 7 8 11 12 13 14 14 17 19 23 22 22 22 24 25 26 26 30 29 28 27 24 25 23 23 22 21 18 16 15 13 12
29 29 25 24 23 17 19 24 23 23 22 20 19 17 19 18 17 17 16 17 15 14 15 10 13 19 20 25 23 24 27 26 25 24 26 29 29 27 25 25 25 23 22 21 19 18 15 15 14
21 25 30 28 20 21 25 28 21 27 23 22 22 22 22 19 17 15 16 17 16 17 17 13 12 15 16 20 22 25 24 25 24 24 25 29 29 27 27 26 25 24 23 22 20 18 16 16 15
24 27 26 25 29 28 20 29 36 29 25 24 20 21 21 21 21 18 20 21 20 20 18 16 9 11 16 18 21 22 25 23 23 23 25 27 28 27 26 25 24 24 24 21 19 16 16 16 16
17 23 25 34 26 25 22 30 37 28 26 26 27 22 23 24 23 24 22 20 18 17 14 13 13 15 18 20 21 21 23 22 21 21 22 24 25 26 26 24 24 24 23 21 20 18 17 17 15
21 24 31 30 28 24 21 37 34 30 22 23 22 21 21 20 18 16 15 17 17 16 14 16 23 22 18 19 20 21 20 20 20 19 20 20 23 24 24 22 21 21 21 21 20 17 16 17 14
27 27 28 28 23 27 28 35 29 22 13 24 24 23 22 20 17 17 19 20 20 20 20 23 28 22 18 16 14 16 17 18 17 18 18 18 20 22 22 19 18 18 19 19 18 17 16 13 12
25 27 26 21 21 27 29 35 30 27 28 26 23 23 23 23 21 23 23 21 22 22 23 23 22 19 15 12 14 15 18 17 16 16 16 17 18 20 21 18 18 18 18 18 17 16 15 11 8
23 26 30 20 17 21 26 31 27 27 29 27 26 25 24 23 21 20 23 23 23 23 22 23 20 18 16 14 15 14 15 16 15 14 15 17 18 19 20 18 18 18 15 15 15 16 11 9 9
24 25 24 27 17 22 20 27 26 23 22 21 24 24 24 24 22 22 22 26 26 25 22 20 19 16 16 16 15 13 13 11 14 15 16 17 17 19 18 18 17 17 15 16 17 15 12 10 9
21 22 25 24 22 20 20 21 23 24 28 28 27 26 24 23 23 23 23 24 29 29 26 22 18 16 14 16 18 19 17 14 15 17 16 17 17 18 18 18 17 17 15 13 14 13 12 10 9
22 19 24 20 21 24 30 18 18 18 22 22 20 20 21 22 22 22 22 24 28 26 25 23 20 17 15 17 19 19 15 12 15 17 19 18 18 17 18 18 18 17 14 14 13 11 11 10 12
22 18 21 20 18 20 27 23 20 20 22 19 17 18 17 12 14 15 15 18 22 23 21 20 19 15 14 17 18 17 15 15 19 19 21 20 18 17 18 18 17 15 13 12 11 10 10 11 10
17 17 12 17 19 18 20 19 18 7 7 7 1 6 9 7 9 9 11 11 12 16 17 16 15 14 14 16 16 16 16 17 20 22 20 21 19 18 19 17 15 14 13 11 10 10 10 10 11
20 19 14 20 17 22 26 22 17 21 22 23 14 4 5 6 9 11 11 10 10 12 15 16 15 14 16 17 17 17 19 19 20 18 20 18 18 17 19 14 13 12 11 10 9 9 10 11 11
21 19 21 24 20 15 19 25 24 14 10 10 9 6 5 8 11 14 13 9 7 10 13 15 16 17 18 19 20 20 19 19 19 19 17 17 15 15 16 14 13 12 10 9 9 9 11 11 11
23 19 14 13 15 17 15 22 12 21 24 12 5 3 8 11 15 15 10 6 4 6 11 14 17 20 21 21 21 21 20 19 20 19 17 16 15 15 14 13 11 10 10 10 10 9 11 11 11
12 17 10 15 13 16 12 13 16 7 12 11 4 7 11 14 17 15 10 7 6 8 13 17 20 22 23 22 22 22 21 20 20 18 17 16 14 13 12 11 11 11 11 10 10 9 10 12 11
2 9 7 11 14 17 16 4 5 18 13 6 5 9 14 16 18 14 8 5 1 11 17 19 22 23 23 22 23 22 22 20 19 17 15 13 12 11 12 12 12 11 11 10 10 11 11 12 11
Wind_Direction
198 235 225 224 232 236 244 227 240 196 199 164 281 204 226 229 172 171 108 155 150 164 172 181 185 186 189 189 186 185 185 185 186 188 193 196 198 198 192 186 182 179 167 164 157 155 147 139 132
186 200 214 243 247 222 230 214 213 210 138 306 244 218 236 213 217 57 138 157 154 164 171 178 188 190 193 194 189 187 187 189 189 191 194 197 198 196 189 184 179 175 172 169 164 160 150 144 139
177 208 246 227 234 240 241 179 220 179 283 277 225 236 181 226 223 294 127 155 156 167 175 181 190 193 196 199 196 191 189 190 190 193 193 195 195 192 188 184 179 174 173 172 173 170 165 160 151
179 198 240 244 234 227 240 89 161 225 306 258 240 205 199 220 209 197 159 159 161 170 179 191 192 196 198 201 202 199 198 195 193 195 198 197 197 193 190 187 183 178 177 180 181 180 180 174 168
204 250 243 234 243 245 235 248 274 263 289 270 256 236 238 182 178 162 160 163 167 174 182 191 195 198 200 203 205 204 205 202 202 202 202 203 202 199 195 193 189 184 182 184 188 188 188 192 205
199 264 241 240 240 242 243 254 258 260 268 270 239 230 227 133 171 164 165 169 171 176 184 191 200 201 203 209 208 208 207 207 207 209 207 209 208 205 202 198 196 191 190 191 189 192 202 208 226
236 220 240 259 265 266 248 239 248 256 263 249 233 215 176 174 152 170 170 171 174 182 188 193 199 202 206 213 215 215 213 213 211 210 211 212 211 208 206 203 201 198 198 196 195 199 204 214 231
230 244 251 240 242 250 257 257 246 248 249 55 241 210 162 102 161 167 175 179 181 188 196 197 198 204 204 211 220 222 221 222 220 218 218 217 216 213 211 207 207 206 204 202 200 202 205 214 228
232 239 242 242 233 243 239 249 243 249 258 216 277 83 50 140 172 178 181 187 194 203 204 205 206 205 207 213 222 227 227 228 227 224 222 218 214 216 213 210 214 212 209 207 206 207 211 217 227
218 228 239 247 257 237 246 251 252 237 224 224 220 141 89 91 179 194 195 201 206 211 210 214 214 212 212 215 217 220 222 222 223 222 218 217 218 216 214 216 213 219 215 213 213 215 218 222 234
222 239 246 245 246 244 251 257 246 245 246 221 217 202 199 302 174 214 221 232 219 222 220 220 220 212 213 220 220 221 223 223 222 219 216 215 215 218 216 216 219 216 220 218 223 222 218 227 236
239 240 241 259 242 236 249 262 261 250 249 250 206 257 281 282 275 257 266 257 227 235 244 237 230 221 218 218 224 227 227 226 225 224 217 213 210 212 214 215 216 212 214 216 221 224 230 229 232
237 241 247 245 254 239 254 249 252 250 247 254 256 257 263 272 269 268 267 264 266 266 257 242 237 228 224 224 228 230 231 232 230 225 222 217 217 214 213 215 215 217 218 218 220 222 223 227 232
239 248 247 252 238 245 242 251 252 246 253 254 259 260 260 257 259 267 266 264 261 266 267 270 250 227 225 227 233 235 239 239 234 232 228 220 217 215 214 213 216 220 220 222 220 222 226 230 235
257 260 261 249 241 239 245 255 247 248 248 255 254 255 255 257 260 259 257 255 259 261 262 271 248 236 236 241 247 244 244 242 234 231 227 222 218 218 214 216 217 222 223 221 220 222 224 235 236
261 246 245 240 232 238 229 254 250 243 233 239 253 254 259 262 262 264 261 251 252 254 251 262 263 268 258 254 252 251 249 241 236 228 224 220 217 216 212 215 219 221 221 219 219 222 229 237 239
242 243 236 246 231 223 216 244 252 255 255 241 247 261 258 262 264 259 253 255 249 242 250 263 275 269 257 256 254 248 243 238 230 222 221 215 212 213 209 214 218 216 216 216 220 221 227 241 243
237 238 246 258 238 227 224 242 249 258 243 247 244 249 252 254 254 252 253 256 259 264 260 259 267 263 254 255 244 240 236 232 224 218 215 206 205 205 204 209 208 202 209 212 216 222 228 234 246
263 268 260 262 250 256 230 241 246 246 255 257 255 255 258 261 265 269 267 267 264 261 258 254 255 251 247 230 228 230 224 219 215 210 204 196 197 198 197 198 194 195 199 205 210 215 220 231 228
257 255 257 256 282 251 244 252 250 244 248 251 255 255 263 270 271 272 272 267 261 263 259 260 256 255 240 234 228 225 218 212 205 195 193 193 194 192 188 188 188 188 190 195 196 203 208 214 215
254 253 250 253 263 236 250 252 253 248 251 255 257 259 263 266 270 269 269 269 266 260 254 255 257 243 236 228 215 203 185 172 180 183 183 188 186 180 179 180 177 179 185 189 191 197 205 214 220
266 250 253 251 243 243 219 256 244 238 242 243 248 252 256 262 262 265 266 264 260 259 257 251 243 234 233 215 208 195 188 174 183 178 172 169 172 171 173 174 175 174 186 181 190 200 214 220 216
266 264 251 238 242 249 249 262 263 259 258 257 255 253 254 260 263 267 266 265 261 258 253 245 239 242 230 208 205 190 192 170 164 163 153 158 161 165 168 170 172 178 183 189 188 194 210 218 234
265 251 245 243 241 236 236 239 255 253 254 253 250 249 250 260 271 267 271 270 257 250 243 236 232 224 207 196 191 183 178 165 156 154 154 151 152 160 167 170 175 176 186 189 196 196 202 217 226
240 244 238 220 232 238 228 232 242 210 4 235 144 243 247 281 279 296 284 278 260 235 230 220 205 193 189 182 176 173 168 165 155 157 153 151 157 163 167 169 170 180 188 190 193 199 206 206 212
227 227 234 225 228 232 227 239 223 228 257 253 291 249 248 330 323 315 303 286 267 235 212 203 192 179 173 165 158 157 155 153 149 153 147 153 162 166 166 167 176 182 184 189 195 195 202 206 213
240 247 246 267 282 254 222 214 249 253 229 233 221 299 332 331 330 330 323 299 267 218 193 191 176 167 161 155 148 145 147 147 141 139 146 152 151 153 164 173 176 179 185 189 187 200 205 208 214
248 229 228 245 256 239 225 206 223 212 214 224 134 37 15 1 343 346 337 329 277 188 180 171 164 156 152 148 142 141 140 138 138 139 145 148 147 154 160 168 175 180 185 185 192 195 203 205 205
219 219 249 266 261 263 223 213 212 232 132 127 94 27 10 9 353 357 350 343 257 169 154 153 151 148 146 143 140 137 134 135 137 141 143 145 148 154 164 173 179 180 181 186 194 201 198 209 203
300 317 265 249 221 258 279 74 88 120 143 135 45 11 358 353 348 10 358 355 269 154 148 146 146 144 142 140 138 135 135 137 139 142 144 147 150 156 160 165 170 176 180 191 200 211 214 213 197